Temperature
11 11 11 11 11 11 11 11 11 11 11 10 10 10 10 10 10 10 10 11 10 10 10 10 10 10 10 10 9 9 9 9 9 9 9 9 9 10 10 10 10 9 10
10 10 10 10 10 10 10 10 10 10 10 10 10 10 10 10 10 10 10 10 10 10 10 10 9 9 9 9 9 9 9 9 9 9 9 9 9 9 9 9 9 9 9
10 10 9 9 10 10 10 10 10 10 10 10 9 10 10 10 10 9 9 9 9 9 9 9 9 9 9 9 9 8 8 8 8 8 8 8 8 8 8 8 8 8 8
9 9 9 9 9 9 9 9 9 9 9 9 9 9 9 9 9 9 9 9 9 9 8 9 9 9 9 8 8 8 8 8 8 8 8 8 8 8 8 8 8 8 8
8 8 8 8 8 8 8 8 8 8 8 8 8 8 8 9 8 8 8 8 8 8 8 8 8 8 8 8 8 8 8 7 7 7 7 7 7 7 7 7 7 7 7
8 8 8 8 8 8 8 8 8 7 7 8 8 8 8 8 8 8 7 7 7 7 7 7 7 7 7 7 7 7 7 7 7 7 7 7 7 7 7 7 7 7 7
7 7 7 7 7 7 7 7 7 6 7 7 7 7 7 7 7 7 7 7 6 6 6 6 6 6 6 6 6 6 6 6 6 6 6 6 6 6 6 6 6 6 7
7 7 6 6 6 6 6 6 6 6 6 6 5 5 5 5 6 6 6 6 6 6 6 6 5 6 6 6 6 6 6 6 6 6 5 6 6 6 6 6 6 6 6
6 6 6 6 6 6 5 5 5 5 5 5 4 4 4 5 4 5 5 5 5 5 5 5 5 5 5 5 5 5 5 5 5 5 5 5 5 5 5 5 5 5 6
5 5 5 5 5 5 5 5 4 4 4 4 4 4 3 3 3 3 4 4 4 4 4 4 4 4 4 4 4 4 4 5 5 5 5 5 5 5 5 5 5 5 5
5 5 5 5 4 4 4 4 4 4 3 3 3 3 2 2 2 2 2 3 3 3 3 3 3 3 3 3 3 3 3 4 4 4 4 4 4 4 4 4 4 4 4
4 4 4 4 4 4 3 3 3 3 3 3 2 2 2 1 1 1 1 1 1 2 2 2 2 2 2 2 2 3 3 3 3 3 3 3 3 3 3 3 4 4 4
4 4 4 4 3 3 3 3 3 3 2 2 2 1 1 1 1 1 0 0 0 0 1 1 1 1 1 2 2 2 2 2 2 2 2 2 2 2 2 2 3 3 3
3 3 3 3 3 3 3 2 2 2 2 2 2 1 1 1 0 0 -0 -0 -1 -0 0 0 0 1 1 1 1 1 1 1 1 2 2 2 2 2 2 2 2 2 2
3 3 3 2 2 2 2 2 2 2 2 1 1 1 1 0 0 -0 -0 -1 -1 -1 -1 -0 -0 -0 -0 0 0 0 1 1 1 1 1 1 1 1 1 1 1 1 2
2 2 2 2 2 2 2 2 1 1 1 1 1 0 0 -0 -0 -1 -1 -1 -1 -2 -1 -1 -1 -1 -1 -1 -0 -0 0 0 0 1 1 1 0 1 1 1 1 1 1
2 2 2 2 1 1 1 1 1 1 1 0 0 -0 -0 -1 -1 -1 -1 -2 -2 -2 -2 -2 -2 -2 -1 -1 -1 -1 -1 -0 -0 0 0 0 0 0 0 0 1 1 1
1 1 1 1 1 1 1 1 0 0 -0 -0 -0 -1 -1 -1 -1 -2 -2 -2 -2 -2 -2 -2 -2 -2 -2 -1 -1 -1 -1 -1 -1 -1 -0 -0 -0 -0 -0 0 0 0 0
1 1 1 1 0 0 0 0 -0 -0 -0 -1 -1 -1 -1 -1 -2 -2 -2 -2 -3 -3 -3 -3 -2 -2 -2 -2 -2 -2 -2 -2 -1 -1 -1 -1 -1 -1 -0 -0 -0 -0 -0
0 0 0 0 -0 -0 -0 -0 -1 -1 -1 -1 -1 -1 -1 -2 -2 -2 -2 -3 -3 -3 -3 -3 -3 -3 -3 -3 -3 -3 -2 -2 -2 -2 -1 -1 -1 -1 -1 -1 -1 -1 -0
0 -0 -0 -0 -0 -0 -1 -1 -1 -1 -1 -1 -1 -2 -2 -2 -2 -3 -3 -3 -3 -3 -3 -3 -4 -3 -3 -3 -3 -3 -3 -3 -2 -2 -2 -2 -2 -2 -1 -1 -1 -1 -1
-0 -1 -1 -1 -1 -1 -1 -1 -1 -1 -2 -2 -2 -2 -2 -2 -3 -3 -3 -3 -3 -3 -3 -4 -4 -4 -4 -4 -4 -4 -4 -4 -4 -3 -3 -2 -2 -2 -2 -2 -2 -1 -1
-1 -1 -1 -1 -1 -1 -1 -1 -2 -2 -2 -2 -2 -2 -3 -3 -3 -3 -3 -3 -3 -3 -4 -4 -4 -4 -4 -4 -4 -4 -4 -4 -4 -4 -3 -3 -2 -2 -2 -2 -2 -2 -1
-1 -1 -1 -1 -1 -1 -2 -2 -2 -2 -2 -2 -3 -3 -3 -3 -3 -3 -3 -4 -4 -4 -4 -4 -4 -4 -4 -4 -4 -4 -4 -4 -4 -4 -4 -4 -3 -3 -2 -2 -2 -2 -2
-1 -2 -2 -2 -2 -2 -2 -2 -3 -3 -3 -3 -3 -3 -3 -4 -4 -4 -4 -4 -4 -4 -4 -4 -4 -4 -4 -4 -4 -4 -4 -4 -4 -4 -4 -4 -4 -3 -3 -3 -2 -2 -2
-2 -2 -2 -2 -2 -2 -2 -3 -3 -3 -3 -4 -4 -4 -4 -4 -4 -4 -4 -4 -4 -4 -4 -4 -4 -4 -4 -4 -4 -4 -4 -5 -5 -5 -4 -4 -4 -4 -4 -3 -3 -3 -3
Wind_Speed
2 2 2 2 2 2 2 2 2 2 2 2 3 3 2 2 2 2 2 4 4 5 4 4 4 3 4 4 4 5 5 6 6 6 7 7 7 7 8 8 8 8 8
2 1 2 2 2 2 2 2 2 2 1 2 2 2 2 2 2 2 2 2 4 4 5 5 4 4 4 4 5 5 6 6 7 7 7 7 8 8 9 10 10 10 9
2 2 1 1 2 2 2 2 2 1 1 1 2 2 2 2 2 2 2 2 2 3 4 5 5 5 5 5 6 6 6 7 7 8 8 8 8 9 9 10 10 11 11
2 2 1 1 2 2 2 1 1 1 1 2 2 2 2 2 2 2 2 2 2 3 3 5 5 6 6 6 7 7 7 8 8 9 9 10 10 10 10 10 11 11 11
2 2 1 2 2 2 2 1 2 2 2 2 2 2 2 2 2 2 2 2 2 2 3 3 4 6 6 7 7 8 8 9 9 10 10 11 11 11 11 11 12 12 12
2 2 2 2 2 1 1 1 2 2 2 2 3 3 3 2 2 2 2 1 1 2 2 3 3 4 5 7 8 8 9 10 10 11 11 11 11 12 12 12 12 12 13
2 2 2 1 1 1 1 2 2 2 2 2 2 3 3 2 2 2 2 1 1 2 3 3 4 4 4 5 7 9 10 11 11 11 12 12 12 12 13 13 13 13 13
2 1 1 1 1 1 1 1 1 1 2 2 2 3 2 2 1 2 2 2 2 2 3 4 5 5 5 5 6 8 10 11 11 11 12 12 13 13 13 14 14 14 14
1 0 0 0 0 1 1 1 2 2 2 2 2 2 3 3 3 3 3 3 3 3 3 4 4 5 6 6 7 7 9 11 12 12 12 13 13 14 14 14 15 15 15
1 1 2 1 1 1 2 2 2 2 2 2 2 2 3 3 3 3 3 3 4 5 5 4 5 6 6 6 6 8 10 11 13 13 13 14 14 15 15 15 15 16 16
2 2 2 2 2 2 2 3 2 3 3 3 3 3 4 4 5 5 5 5 5 5 5 6 5 5 6 6 6 8 10 12 12 14 14 14 15 15 15 15 16 16 16
2 3 2 2 2 2 3 3 3 4 4 4 4 4 4 4 4 5 6 7 7 6 6 5 5 5 5 6 7 8 10 12 12 13 14 15 15 15 15 16 16 16 17
2 3 2 3 3 3 3 3 4 4 5 5 5 5 5 5 5 6 7 7 8 7 6 5 4 5 5 6 7 8 10 12 13 14 15 15 15 16 16 16 16 17 17
3 3 3 3 4 4 3 4 4 5 5 5 6 6 5 5 5 6 6 7 8 7 7 7 5 5 6 7 8 10 10 12 13 14 15 15 16 16 16 16 17 17 17
3 3 3 4 4 4 4 4 4 5 5 5 5 6 5 5 5 6 6 6 7 8 8 7 5 5 7 8 9 11 12 13 14 15 16 16 16 16 16 17 17 17 17
3 4 4 4 4 4 4 4 4 4 5 5 5 6 6 5 5 5 6 6 7 8 9 7 7 8 9 9 11 12 12 14 14 15 16 16 16 16 17 17 17 17 17
4 4 4 4 4 4 4 5 5 5 5 6 6 7 7 6 6 5 6 6 7 8 10 9 8 8 10 10 10 11 12 12 11 14 15 16 16 16 17 17 17 17 17
4 4 5 5 5 5 5 5 6 5 6 7 7 7 7 6 7 6 6 7 7 8 9 11 9 8 10 10 10 11 10 10 11 13 15 16 16 17 17 17 16 17 17
4 4 5 5 5 5 5 6 6 6 6 7 7 7 7 7 8 7 7 7 7 7 8 9 9 8 8 8 9 10 10 9 10 12 13 14 15 16 16 16 15 15 15
5 5 5 5 5 5 6 6 6 6 6 7 7 7 8 8 8 8 8 8 8 8 8 8 8 8 8 8 8 8 9 8 8 9 10 11 13 14 14 15 14 14 14
5 5 5 5 5 5 5 5 6 6 7 7 7 7 7 8 9 9 7 7 7 7 7 7 8 8 7 7 7 8 9 9 9 7 8 8 9 9 9 10 11 12 13
5 5 5 5 5 4 5 7 7 6 7 7 7 6 6 7 9 10 12 11 10 9 8 8 8 9 9 9 8 8 8 9 8 5 8 9 8 8 8 8 10 12 12
5 6 5 5 5 5 6 7 8 7 7 7 7 6 6 6 8 7 9 10 11 12 12 10 10 10 10 9 9 10 9 10 10 9 9 9 8 8 8 8 11 11 11
5 5 5 5 5 5 6 7 7 7 6 7 6 7 7 7 7 7 8 8 9 9 9 9 10 10 10 9 9 10 10 10 10 8 7 7 7 7 7 7 9 9 9
5 5 5 5 5 5 6 6 6 5 5 6 6 6 7 7 8 9 8 8 8 8 8 10 11 12 12 13 10 7 7 7 8 7 5 5 6 7 7 6 6 7 8
5 4 4 5 5 5 5 6 6 4 5 5 5 6 7 8 9 9 7 7 8 8 7 7 8 8 9 9 10 8 7 7 7 5 3 4 5 5 4 4 5 6 6
Wind_Direction
90 82 69 61 53 46 40 27 31 37 27 12 3 356 356 351 344 344 19 39 25 12 1 353 350 351 346 344 339 336 338 332 327 321 309 302 300 295 290 287 287 288 286
80 88 78 59 46 35 28 16 20 14 15 0 347 340 338 335 334 329 333 21 38 23 3 354 347 343 336 329 325 326 329 328 327 325 317 312 307 301 294 288 286 286 285
70 70 67 53 33 22 22 12 23 10 7 349 335 338 339 333 330 329 328 331 359 30 13 358 353 347 338 332 328 325 323 322 320 318 319 312 308 306 301 295 290 284 282
62 63 63 45 26 19 16 13 7 356 346 335 332 333 329 324 315 318 321 328 337 346 5 8 355 347 342 338 333 329 325 322 319 317 315 313 308 306 305 301 298 290 286
63 54 49 42 33 32 27 14 2 344 331 331 325 318 310 304 304 301 304 322 338 343 341 360 4 360 352 347 343 337 330 324 320 318 316 314 311 304 300 299 298 298 295
62 54 55 47 41 35 22 9 5 348 324 322 318 309 296 287 282 280 289 309 334 334 338 342 341 352 353 346 339 334 328 323 319 316 314 313 310 306 303 298 298 299 297
69 58 52 50 32 19 9 0 356 339 345 337 315 309 286 264 261 259 277 284 313 326 331 337 335 332 334 339 338 335 330 325 322 318 316 314 310 308 306 307 301 300 298
73 65 57 37 4 330 355 357 330 323 332 337 316 300 290 252 237 269 280 282 295 315 326 332 330 325 321 321 328 328 324 321 319 317 317 318 316 311 308 306 306 304 300
148 130 200 241 266 278 279 272 272 289 293 304 307 299 289 286 309 263 270 274 290 299 309 317 318 318 319 316 313 322 324 319 314 312 311 311 310 310 309 309 306 306 303
220 211 221 228 235 251 261 264 270 280 272 276 286 279 284 293 283 289 266 273 290 294 296 304 308 308 308 310 315 321 325 323 316 312 311 309 307 307 307 307 308 307 306
230 220 221 224 234 245 256 262 266 266 258 263 268 276 272 270 262 266 279 287 289 285 292 296 297 301 305 303 308 317 322 321 320 318 313 309 307 307 307 306 306 306 306
233 230 228 231 237 244 254 261 258 256 254 255 259 262 265 265 267 266 275 286 288 290 292 287 287 294 300 300 306 315 316 316 316 316 314 312 309 307 305 305 305 305 303
236 240 245 243 244 248 253 255 256 254 251 250 254 259 264 265 272 273 276 283 286 290 284 277 275 290 297 299 305 314 307 308 311 311 310 310 308 307 305 303 302 302 301
241 242 247 253 247 243 247 249 254 254 252 251 254 257 261 262 262 264 270 280 286 284 278 281 286 284 296 301 306 307 300 303 305 305 305 305 305 303 302 301 300 299 298
244 240 246 253 255 246 244 247 248 255 257 257 259 258 258 259 259 262 263 264 272 282 284 286 288 288 301 301 303 301 299 300 300 299 298 298 298 298 299 299 299 297 296
247 245 250 252 254 251 246 248 254 255 259 260 259 256 258 260 260 260 261 262 263 270 276 280 286 291 297 295 296 296 296 296 293 294 295 296 295 295 296 297 297 297 294
245 247 248 251 252 253 252 252 255 259 261 262 258 255 258 260 261 261 260 261 262 264 271 281 284 291 291 292 295 294 295 294 293 293 294 295 294 294 295 294 294 295 295
242 243 242 246 250 251 252 253 255 255 257 259 261 260 261 262 261 262 261 261 263 265 271 280 287 290 291 291 293 293 295 293 291 293 293 294 293 292 292 292 292 293 293
240 242 243 246 248 251 253 253 253 253 255 259 262 263 265 265 265 264 263 264 266 269 270 275 285 291 293 293 295 293 293 295 294 294 293 292 293 293 292 293 292 292 294
239 241 242 246 249 250 252 253 255 256 258 263 265 264 265 263 265 267 267 267 268 270 272 275 282 288 293 298 296 298 300 301 299 299 295 296 295 295 292 292 292 293 296
239 239 242 247 249 251 249 253 258 259 261 264 267 267 266 265 267 269 270 273 271 270 273 276 280 286 290 297 296 298 297 302 300 294 301 300 299 294 294 292 290 295 296
237 238 241 245 248 251 255 264 268 264 261 261 265 269 269 265 265 269 271 272 273 272 273 274 276 279 285 291 294 293 295 298 297 301 304 300 297 293 293 295 297 299 298
234 236 241 244 250 255 255 263 271 271 264 261 264 268 270 272 274 272 274 274 273 270 268 270 272 276 283 288 289 288 287 289 289 296 299 292 296 293 294 295 298 298 296
233 237 240 246 255 258 259 267 274 270 267 267 267 266 267 272 275 278 279 279 278 274 270 267 268 276 281 284 282 283 287 289 288 286 287 284 294 295 299 295 297 301 302
234 239 244 245 252 258 256 267 274 270 266 270 272 269 267 270 276 279 279 281 285 286 279 271 275 280 283 283 282 284 284 285 288 291 285 278 293 305 301 293 297 306 309
237 243 247 248 251 259 259 263 268 265 270 276 276 273 270 273 280 284 280 279 284 292 295 294 287 285 283 281 279 274 276 279 286 288 290 290 295 309 302 295 309 318 314
Height
1534 1534 1533 1533 1533 1533 1533 1533 1533 1533 1533 1532 1532 1532 1531 1531 1530 1530 1529 1529 1528 1528 1527 1527 1526 1526 1526 1525 1524 1524 1524 1523 1522 1521 1520 1519 1519 1518 1517 1517 1516 1515 1515
1532 1532 1532 1532 1532 1532 1531 1531 1531 1531 1530 1530 1530 1530 1529 1529 1528 1528 1527 1526 1526 1525 1525 1524 1524 1524 1523 1522 1522 1522 1521 1520 1519 1518 1517 1516 1516 1515 1514 1514 1513 1512 1512
1530 1530 1530 1530 1530 1530 1529 1529 1529 1529 1528 1528 1528 1527 1527 1526 1526 1525 1524 1524 1523 1522 1522 1521 1521 1521 1520 1520 1519 1519 1518 1517 1516 1515 1514 1513 1513 1512 1511 1510 1510 1509 1508
1528 1528 1528 1528 1528 1528 1528 1527 1527 1527 1526 1526 1525 1525 1524 1523 1523 1522 1522 1521 1521 1520 1519 1519 1518 1518 1517 1517 1516 1515 1515 1514 1513 1512 1511 1510 1509 1508 1508 1507 1506 1505 1505
1526 1526 1526 1526 1526 1526 1526 1525 1525 1525 1524 1523 1523 1522 1521 1521 1520 1519 1519 1518 1517 1517 1516 1516 1515 1514 1514 1513 1513 1512 1511 1510 1509 1509 1507 1506 1505 1505 1504 1503 1502 1501 1501
1524 1524 1524 1524 1524 1524 1524 1523 1523 1522 1522 1521 1520 1519 1519 1518 1517 1517 1516 1515 1514 1514 1513 1513 1512 1511 1510 1510 1509 1508 1507 1506 1506 1505 1504 1503 1501 1501 1500 1499 1498 1497 1496
1522 1522 1522 1522 1522 1522 1521 1521 1520 1520 1519 1518 1518 1517 1516 1515 1514 1514 1513 1513 1512 1511 1510 1510 1509 1508 1507 1506 1505 1504 1503 1502 1501 1501 1500 1499 1498 1496 1496 1495 1494 1493 1491
1519 1519 1519 1519 1519 1519 1519 1518 1518 1518 1517 1517 1517 1516 1515 1515 1512 1511 1510 1510 1509 1508 1507 1506 1505 1504 1503 1502 1501 1500 1499 1498 1497 1496 1495 1494 1493 1492 1491 1490 1489 1488 1487
1516 1517 1517 1517 1517 1517 1516 1516 1516 1516 1515 1515 1515 1515 1515 1513 1511 1509 1507 1506 1506 1505 1504 1503 1502 1501 1499 1498 1497 1496 1495 1494 1493 1492 1490 1489 1488 1487 1486 1485 1484 1483 1481
1514 1514 1514 1514 1514 1514 1514 1514 1514 1513 1513 1512 1512 1512 1512 1510 1510 1507 1505 1504 1502 1501 1500 1499 1498 1496 1495 1493 1492 1491 1490 1489 1487 1486 1485 1484 1483 1482 1481 1480 1479 1477 1476
1511 1511 1511 1511 1511 1511 1511 1511 1510 1510 1510 1509 1509 1508 1508 1507 1506 1505 1502 1500 1499 1498 1496 1495 1493 1492 1490 1489 1487 1486 1485 1483 1482 1481 1480 1479 1478 1476 1475 1474 1473 1472 1471
1508 1508 1508 1508 1508 1507 1507 1507 1507 1507 1506 1506 1505 1505 1504 1504 1503 1502 1500 1497 1495 1494 1492 1490 1489 1487 1486 1485 1483 1481 1480 1478 1477 1475 1474 1473 1472 1470 1469 1468 1467 1466 1464
1504 1505 1505 1504 1504 1504 1504 1504 1503 1503 1503 1502 1502 1501 1500 1500 1499 1498 1497 1494 1492 1490 1488 1486 1485 1483 1482 1480 1479 1477 1475 1473 1471 1470 1468 1467 1466 1465 1463 1462 1461 1459 1458
1501 1501 1501 1501 1501 1501 1500 1500 1500 1499 1499 1498 1498 1497 1496 1496 1495 1494 1493 1492 1489 1486 1485 1484 1482 1480 1478 1476 1474 1472 1470 1468 1466 1465 1463 1461 1460 1459 1457 1456 1454 1453 1452
1497 1497 1497 1497 1497 1497 1497 1496 1496 1496 1495 1494 1493 1493 1492 1491 1490 1489 1489 1488 1488 1484 1480 1479 1478 1476 1474 1472 1470 1468 1465 1463 1461 1459 1457 1455 1454 1453 1451 1450 1448 1447 1446
1494 1494 1494 1494 1493 1493 1493 1493 1492 1491 1491 1490 1489 1488 1488 1487 1486 1485 1484 1483 1482 1481 1477 1475 1473 1472 1470 1468 1465 1463 1461 1458 1456 1454 1452 1450 1448 1447 1445 1444 1442 1441 1440
1490 1490 1490 1490 1490 1489 1489 1489 1488 1487 1487 1486 1485 1484 1483 1482 1481 1480 1479 1478 1477 1476 1473 1470 1469 1467 1465 1463 1461 1458 1456 1453 1451 1449 1447 1445 1443 1441 1439 1438 1436 1435 1434
1486 1486 1486 1486 1486 1486 1485 1485 1484 1483 1483 1482 1481 1480 1479 1478 1477 1476 1475 1474 1473 1471 1470 1466 1464 1462 1460 1458 1456 1454 1451 1449 1446 1443 1441 1439 1437 1435 1434 1432 1430 1429 1428
1483 1483 1482 1482 1482 1481 1481 1481 1480 1479 1479 1478 1477 1476 1475 1474 1472 1471 1470 1469 1468 1467 1465 1463 1459 1458 1456 1454 1451 1449 1447 1444 1441 1439 1436 1434 1432 1430 1428 1426 1425 1423 1422
1479 1479 1479 1478 1478 1477 1477 1477 1476 1475 1474 1473 1472 1471 1470 1469 1468 1467 1466 1465 1463 1462 1460 1458 1456 1454 1452 1450 1448 1445 1441 1439 1437 1434 1432 1429 1427 1425 1423 1421 1419 1417 1416
1475 1475 1475 1474 1474 1473 1473 1472 1472 1471 1470 1469 1468 1467 1465 1464 1463 1462 1461 1460 1459 1457 1456 1454 1452 1450 1447 1446 1444 1441 1438 1435 1432 1430 1427 1425 1422 1420 1418 1416 1414 1412 1410
1470 1471 1471 1470 1469 1469 1469 1468 1468 1467 1466 1465 1463 1462 1461 1460 1459 1458 1457 1456 1455 1453 1451 1449 1447 1445 1443 1442 1440 1437 1434 1431 1428 1426 1423 1420 1418 1415 1414 1411 1409 1407 1405
1466 1466 1466 1466 1465 1465 1465 1464 1463 1462 1461 1460 1459 1458 1457 1456 1455 1453 1452 1451 1449 1448 1447 1445 1443 1441 1439 1437 1435 1433 1430 1428 1425 1422 1420 1415 1414 1411 1409 1407 1405 1403 1401
1462 1462 1462 1462 1461 1461 1460 1460 1459 1458 1457 1456 1455 1454 1452 1451 1450 1449 1447 1446 1444 1443 1441 1440 1438 1436 1435 1433 1431 1429 1426 1424 1421 1418 1416 1413 1410 1408 1405 1403 1401 1399 1397
1458 1458 1458 1458 1457 1457 1456 1456 1455 1454 1453 1452 1451 1450 1449 1447 1446 1445 1443 1441 1439 1438 1437 1435 1433 1431 1429 1428 1426 1424 1422 1419 1416 1414 1412 1410 1407 1404 1401 1399 1398 1396 1394
1454 1454 1454 1453 1453 1452 1452 1452 1451 1450 1449 1448 1447 1446 1445 1443 1442 1441 1439 1437 1435 1433 1432 1430 1428 1427 1425 1423 1422 1420 1418 1415 1413 1410 1408 1407 1404 1402 1398 1396 1395 1393 1391